Home   Weather   Petersburg   Past weeks

Flag for USA Past Weather in Petersburg, Indiana, USA — Yesterday and Last 2 Weeks

Now
60 °F

Light rain. Mostly cloudy.


Feels Like: 60 °F
Forecast: 54 / 69 °F
Wind: 5 mph from West

Location: Huntingburg Airport

Current Time: Apr 27, 2017 at 3:13:48 am

Latest Report: Apr 27, 2017 at 1:56 am


Visibility: 10 mi

Pressure: 29.58 "Hg

Humidity: 93%

Dew Point: 58 °F

Location of PetersburgLocation

Past Weather in Petersburg — Graph

°F

Petersburg Temperature Yesterday

Maximum temperature yesterday: 82 °F (at 2:56 pm)
Minimum temperature yesterday: 61 °F (at 2:56 am)
Average temperature yesterday: 71 °F

High & Low Weather Summary for the Past Weeks

 TemperatureHumidityPressure
High82 °F (Apr 14, 4:56 pm)100% (Apr 12, 6:36 am)30.38 "Hg (Apr 12, 6:36 am)
Low41 °F (Apr 12, 7:09 am)28% (Apr 23, 6:56 pm)29.49 "Hg (Apr 26, 8:56 pm)
Average64 °F69%30.03 "Hg
* Reported Apr 12 1:56 am — Apr 27 1:56 am, Petersburg, Weather by CustomWeather, © 2017

Note: Actual official high and low records may vary slightly from our data, if they occured in-between our weather recording intervals... More about our weather records

Advertising

Petersburg Weather History for the Previous 24 Hours

Scroll right to see more
 ConditionsComfort  
Time TempWeatherWind HumidityBarometerVisibility
1:56 am
Thu, Apr 27
60 °FLight rain. Mostly cloudy.5 mph93%29.58 "Hg10 mi
12:56 am63 °FLight rain. Overcast.8 mph84%29.56 "Hg10 mi
11:56 pm
Wed, Apr 26
64 °FMostly cloudy.No wind81%29.55 "Hg10 mi
11:19 pm64 °FMostly cloudy.17 mph78%29.56 "Hg10 mi
10:56 pm74 °FOvercast.13 mph53%29.53 "Hg10 mi
9:56 pm74 °FClear.13 mph52%29.49 "Hg10 mi
8:56 pm75 °FClear.10 mph55%29.49 "Hg10 mi
7:56 pm77 °FSunny.8 mph52%29.50 "Hg10 mi
6:56 pm80 °FSunny.12 mph47%29.52 "Hg10 mi
5:56 pm81 °FPassing clouds.21 mph49%29.52 "Hg10 mi
4:56 pm80 °FPassing clouds.16 mph54%29.55 "Hg10 mi
3:56 pm82 °FPartly sunny.16 mph55%29.56 "Hg10 mi
2:56 pm82 °FScattered clouds.20 mph56%29.58 "Hg10 mi
1:56 pm80 °FSunny.21 mph58%29.59 "Hg10 mi
12:56 pm77 °FSunny.15 mph58%29.60 "Hg10 mi
11:56 am75 °FSunny.13 mph64%29.62 "Hg10 mi
10:56 am71 °FSunny.17 mph68%29.61 "Hg10 mi
10:39 am72 °FPassing clouds.14 mph69%29.63 "Hg10 mi
9:56 am69 °FPassing clouds.15 mph70%29.63 "Hg10 mi
8:56 am66 °FPassing clouds.13 mph75%29.65 "Hg10 mi
7:56 am64 °FSunny.10 mph78%29.65 "Hg10 mi
7:29 am63 °FPassing clouds.12 mph77%29.65 "Hg10 mi
6:56 am62 °FClear.8 mph80%29.63 "Hg10 mi
5:56 am62 °FClear.8 mph80%29.63 "Hg10 mi
4:56 am62 °FClear.7 mph80%29.63 "Hg10 mi
3:56 am61 °FClear.8 mph83%29.63 "Hg10 mi
Weather by CustomWeather, © 2017

See weather overviewHow to use our weather pages